Regional Weather Roundup
Issued by NWS Charleston, WV

Home | Current Version | Previous Version | Text Only | Print | Product List | Glossary Off
Versions: 1 2 3 4 5 6 7 8 9 10 11 12 13 14 15 16 17 18 19 20 21 22 23 24 25 26 27 28 29 30 31 32 33 34 35 36 37 38 39 40 41 42 43 44 45 46 47 48 49 50

000
ASUS41 KRLX 302210
RWRRLX
West Virginia Regional Weather Roundup
National Weather Service Charleston WV
600 PM EDT THU JUL 30 2015

Note: "fair" indicates few or no clouds below 12,000 feet with no
significant weather and/or obstructions to visibility.

WVZ003-302300-
Northern Panhandle of West Virginia

CITY           SKY/WX    TMP DP  RH WIND       PRES   REMARKS
WHEELING       SUNNY     83  57  41 W17G23    29.97S
$$

WVZ009-302300-
Northwest West Virginia

CITY           SKY/WX    TMP DP  RH WIND       PRES   REMARKS
PARKERSBURG    SUNNY     87  56  34 NW9G16    30.00S
$$

WVZ006-302300-
Western West Virginia

CITY           SKY/WX    TMP DP  RH WIND       PRES   REMARKS
HUNTINGTON     SUNNY     84  61  45 NW7       30.00S
$$

WVZ015-302300-
West Central West Virginia

CITY           SKY/WX    TMP DP  RH WIND       PRES   REMARKS
CHARLESTON     MOSUNNY   85  60  42 NW9       29.99S
$$

WVZ022-031-302300-
North Central West Virginia

CITY           SKY/WX    TMP DP  RH WIND       PRES   REMARKS
CLARKSBURG     SUNNY     84  58  40 NW10      29.97S
MORGANTOWN     SUNNY     88  54  31 MISG      29.97S
$$

WVZ025-035-042-045-302300-
Southern West Virginia

CITY           SKY/WX    TMP DP  RH WIND       PRES   REMARKS
BECKLEY        MOSUNNY   79  60  52 NW13      30.06S
LOGAN            N/A     82  64  54 NW6       30.01R
BLUEFIELD      PTSUNNY   81  64  56 NW10      30.08S
LEWISBURG      PTSUNNY   82  62  51 NW8       30.03S
$$

WVZ047-302300-
Northern Mountains of West Virginia

CITY           SKY/WX    TMP DP  RH WIND       PRES   REMARKS
ELKINS         MOSUNNY   81  56  42 NW9       30.02R
$$

WVZ052-302300-
Eastern Panhandle of West Virginia

CITY           SKY/WX    TMP DP  RH WIND       PRES   REMARKS
MARTINSBURG    MOSUNNY   87  58  37 W10       29.88R
PETERSBURG     PTSUNNY  N/A N/A N/A NW15      29.93R
$$


USA.gov is the U.S. government's official web portal to all federal, state and local government web resources and services.